| time (UTC) | temp F | wind direction | speed knots | gust knots | rain 1hr in | rain 24hr in | rain mn in | humidity % | barometer mb |
| 20260509174014 | 55 | 257 | 1.7 | 2.6 | 0.00 | 0.22 | 0.22 | 95 | 1038.0 |
| 20260509173509 | 55 | 270 | 2.6 | 3.5 | 0.00 | 0.22 | 0.22 | 93 | 1038.0 |
| 20260509173005 | 55 | 279 | 1.7 | 4.3 | 0.00 | 0.22 | 0.22 | 94 | 1037.9 |
| 20260509172503 | 55 | 280 | 1.7 | 4.3 | 0.00 | 0.22 | 0.22 | 94 | 1038.1 |
| 20260509171958 | 55 | 252 | 1.7 | 4.3 | 0.00 | 0.22 | 0.22 | 94 | 1037.9 |
| 20260509171454 | 56 | 212 | 2.6 | 2.6 | 0.00 | 0.22 | 0.22 | 95 | 1037.9 |
| 20260509170951 | 55 | 270 | 1.7 | 2.6 | 0.00 | 0.22 | 0.22 | 94 | 1038.0 |
| 20260509170446 | 55 | 285 | 1.7 | 2.6 | 0.00 | 0.22 | 0.22 | 95 | 1037.9 |
| 20260509165942 | 55 | 270 | 0.0 | 2.6 | 0.00 | 0.22 | 0.22 | 94 | 1037.9 |
| 20260509165441 | 55 | 262 | 1.7 | 3.5 | 0.00 | 0.22 | 0.22 | 96 | 1038.1 |
| 20260509164937 | 55 | 264 | 2.6 | 4.3 | 0.00 | 0.22 | 0.22 | 94 | 1037.9 |
| 20260509164433 | 55 | 239 | 3.5 | 3.5 | 0.00 | 0.22 | 0.22 | 96 | 1037.9 |
| 20260509163929 | 54 | 281 | 2.6 | 3.5 | 0.00 | 0.22 | 0.22 | 96 | 1038.2 |
| 20260509163427 | 55 | 270 | 2.6 | 3.5 | 0.00 | 0.22 | 0.22 | 98 | 1037.9 |
| 20260509162926 | 54 | 270 | 1.7 | 2.6 | 0.00 | 0.22 | 0.22 | 99 | 1038.1 |
| 20260509162425 | 54 | 262 | 1.7 | 3.5 | 0.00 | 0.22 | 0.22 | 99 | 1038.3 |
| 20260509161920 | 54 | 278 | 1.7 | 3.5 | 0.00 | 0.22 | 0.22 | 99 | 1038.3 |
| 20260509161417 | 53 | 270 | 1.7 | 2.6 | 0.00 | 0.22 | 0.22 | 99 | 1038.4 |
| 20260509160912 | 53 | 282 | 1.7 | 4.3 | 0.00 | 0.22 | 0.22 | 99 | 1038.3 |
| 20260509160408 | 53 | 279 | 1.7 | 2.6 | 0.00 | 0.22 | 0.22 | 99 | 1038.6 |
| 20260509155903 | 53 | 243 | 3.5 | 5.2 | 0.00 | 0.22 | 0.22 | 99 | 1038.3 |
| 20260509155401 | 54 | 266 | 1.7 | 3.5 | 0.00 | 0.22 | 0.22 | 99 | 1038.5 |
| 20260509154857 | 53 | 270 | 1.7 | 2.6 | 0.00 | 0.22 | 0.22 | 99 | 1038.4 |
| 20260509154353 | 53 | 270 | 1.7 | 2.6 | 0.00 | 0.22 | 0.22 | 99 | 1038.4 |
| 20260509153850 | 52 | 266 | 1.7 | 4.3 | 0.00 | 0.22 | 0.22 | 99 | 1038.2 |
| 20260509153347 | 53 | 258 | 1.7 | 3.5 | 0.00 | 0.22 | 0.22 | 99 | 1038.5 |
| 20260509152844 | 52 | 204 | 1.7 | 4.3 | 0.00 | 0.22 | 0.22 | 99 | 1038.6 |
| 20260509152340 | 53 | 275 | 1.7 | 3.5 | 0.00 | 0.22 | 0.22 | 99 | 1038.5 |
| 20260509151838 | 52 | 251 | 2.6 | 2.6 | 0.00 | 0.22 | 0.22 | 99 | 1038.6 |
| 20260509151333 | 52 | 248 | 2.6 | 2.6 | 0.00 | 0.22 | 0.22 | 99 | 1038.6 |
| 20260509150832 | 52 | 254 | 1.7 | 2.6 | 0.02 | 0.22 | 0.22 | 99 | 1038.6 |
| 20260509150329 | 52 | 248 | 1.7 | 2.6 | 0.02 | 0.22 | 0.22 | 99 | 1038.8 |
| 20260509145826 | 51 | 261 | 1.7 | 4.3 | 0.00 | 0.22 | 0.22 | 99 | 1038.8 |
| 20260509145321 | 51 | 235 | 1.7 | 2.6 | 0.00 | 0.22 | 0.22 | 99 | 1038.6 |
| 20260509144818 | 51 | 295 | 2.6 | 4.3 | 0.00 | 0.22 | 0.22 | 99 | 1038.6 |
| 20260509144315 | 51 | 240 | 2.6 | 7.0 | 0.00 | 0.22 | 0.22 | 99 | 1038.5 |
| 20260509143812 | 51 | 249 | 2.6 | 4.3 | 0.00 | 0.22 | 0.22 | 99 | 1038.7 |
| 20260509143309 | 51 | 246 | 1.7 | 2.6 | 0.00 | 0.22 | 0.22 | 99 | 1038.6 |
| 20260509142806 | 51 | 262 | 1.7 | 4.3 | 0.00 | 0.22 | 0.22 | 99 | 1038.7 |
| 20260509142302 | 51 | 251 | 2.6 | 5.2 | 0.00 | 0.22 | 0.22 | 99 | 1038.8 |
| 20260509141757 | 51 | 236 | 1.7 | 2.6 | 0.00 | 0.22 | 0.22 | 99 | 1038.9 |
| 20260509141255 | 51 | 240 | 1.7 | 4.3 | 0.00 | 0.22 | 0.22 | 99 | 1039.0 |
| 20260509140751 | 51 | 254 | 1.7 | 2.6 | 0.02 | 0.22 | 0.22 | 99 | 1039.0 |
| 20260509140248 | 50 | 270 | 1.7 | 4.3 | 0.05 | 0.22 | 0.22 | 99 | 1039.1 |
| 20260509135746 | 50 | 280 | 2.6 | 2.6 | 0.07 | 0.21 | 0.21 | 99 | 1039.1 |
| 20260509135243 | 50 | 258 | 1.7 | 3.5 | 0.05 | 0.20 | 0.20 | 99 | 1039.1 |
| 20260509134740 | 50 | 254 | 1.7 | 3.5 | 0.02 | 0.20 | 0.20 | 99 | 1039.2 |
| 20260509134238 | 50 | 250 | 1.7 | 3.5 | 0.02 | 0.20 | 0.20 | 99 | 1038.9 |
| 20260509133735 | 49 | 251 | 2.6 | 3.5 | 0.02 | 0.20 | 0.20 | 99 | 1039.1 |
| 20260509133231 | 49 | 233 | 2.6 | 2.6 | 0.02 | 0.19 | 0.19 | 99 | 1039.4 |
| 20260509132730 | 49 | 270 | 1.7 | 2.6 | 0.02 | 0.19 | 0.19 | 99 | 1039.2 |
| 20260509132228 | 49 | 257 | 1.7 | 2.6 | 0.02 | 0.19 | 0.19 | 99 | 1039.3 |
| 20260509131725 | 49 | 270 | 2.6 | 2.6 | 0.02 | 0.19 | 0.19 | 99 | 1039.4 |
| 20260509131221 | 49 | 255 | 1.7 | 2.6 | 0.02 | 0.18 | 0.18 | 99 | 1039.4 |
| 20260509130717 | 49 | 278 | 1.7 | 2.6 | 0.02 | 0.18 | 0.18 | 99 | 1039.2 |
| 20260509130213 | 48 | 285 | 1.7 | 2.6 | 0.02 | 0.18 | 0.18 | 99 | 1039.4 |
| 20260509125710 | 48 | 265 | 1.7 | 2.6 | 0.02 | 0.18 | 0.18 | 99 | 1039.3 |
| 20260509125207 | 48 | 270 | 1.7 | 2.6 | 0.05 | 0.18 | 0.18 | 99 | 1039.5 |
| 20260509124703 | 48 | 275 | 1.7 | 2.6 | 0.05 | 0.17 | 0.17 | 99 | 1039.4 |
| 20260509124200 | 48 | 266 | 2.6 | 2.6 | 0.02 | 0.17 | 0.17 | 99 | 1039.4 |
| 20260509123658 | 48 | 243 | 1.7 | 2.6 | 0.05 | 0.17 | 0.17 | 99 | 1039.4 |
| 20260509123155 | 47 | 270 | 1.7 | 1.7 | 0.05 | 0.17 | 0.17 | 99 | 1039.4 |
| 20260509122650 | 47 | 225 | 4.3 | 4.3 | 0.02 | 0.16 | 0.16 | 99 | 1039.5 |
| 20260509122148 | 47 | 265 | 1.7 | 2.6 | 0.05 | 0.16 | 0.16 | 99 | 1039.8 |
| 20260509121644 | 47 | 270 | 1.7 | 2.6 | 0.07 | 0.15 | 0.15 | 99 | 1039.4 |
| 20260509121142 | 47 | 275 | 1.7 | 3.5 | 0.09 | 0.15 | 0.15 | 99 | 1039.5 |
| 20260509120640 | 47 | 270 | 1.7 | 2.6 | 0.09 | 0.14 | 0.14 | 99 | 1039.4 |
| 20260509120138 | 46 | 232 | 3.5 | 5.2 | 0.09 | 0.13 | 0.13 | 99 | 1039.8 |
| 20260509115635 | 46 | 280 | 1.7 | 3.5 | 0.09 | 0.12 | 0.12 | 99 | 1039.6 |
| 20260509115133 | 46 | 279 | 1.7 | 2.6 | 0.09 | 0.11 | 0.11 | 99 | 1040.0 |
| 20260509114631 | 46 | 284 | 2.6 | 2.6 | 0.12 | 0.11 | 0.11 | 99 | 1040.0 |
| 20260509114129 | 46 | 275 | 1.7 | 2.6 | 0.09 | 0.10 | 0.10 | 99 | 1040.0 |
| 20260509113627 | 46 | 285 | 1.7 | 1.7 | 0.07 | 0.09 | 0.09 | 99 | 1039.8 |
| 20260509113124 | 46 | 286 | 1.7 | 1.7 | 0.07 | 0.08 | 0.08 | 99 | 1039.9 |
| 20260509112620 | 46 | 261 | 1.7 | 1.7 | 0.05 | 0.07 | 0.07 | 99 | 1039.8 |
| 20260509112118 | 46 | 291 | 0.0 | 1.7 | 0.05 | 0.07 | 0.07 | 99 | 1039.9 |
| 20260509111615 | 46 | 278 | 0.0 | 2.6 | 0.09 | 0.07 | 0.07 | 99 | 1039.8 |
| 20260509111112 | 46 | 257 | 0.9 | 1.7 | 0.09 | 0.06 | 0.06 | 99 | 1039.8 |
| 20260509110609 | 45 | 285 | 0.0 | 1.7 | 0.09 | 0.05 | 0.05 | 99 | 1039.8 |
| 20260509110106 | 45 | 276 | 0.9 | 1.7 | 0.09 | 0.04 | 0.04 | 99 | 1039.8 |
| 20260509105604 | 45 | 292 | 1.7 | 2.6 | 0.09 | 0.04 | 0.04 | 99 | 1039.8 |
| 20260509105101 | 45 | 287 | 1.7 | 3.5 | 0.07 | 0.03 | 0.03 | 99 | 1039.5 |
| 20260509104558 | 45 | 270 | 0.9 | 1.7 | 0.07 | 0.02 | 0.02 | 99 | 1039.8 |
| 20260509104055 | 45 | 276 | 0.9 | 2.6 | 0.02 | 0.01 | 0.01 | 99 | 1039.8 |
| 20260509103553 | 45 | 293 | 1.7 | 2.6 | 0.00 | 0.01 | 0.01 | 99 | 1039.6 |
| 20260509103051 | 45 | 289 | 1.7 | 2.6 | 0.00 | 0.01 | 0.01 | 99 | 1039.6 |
| 20260509102547 | 45 | 265 | 1.7 | 2.6 | 0.00 | 0.01 | 0.01 | 99 | 1039.3 |
| 20260509102045 | 44 | 283 | 0.9 | 2.6 | 0.00 | 0.01 | 0.01 | 99 | 1039.4 |
| 20260509101541 | 44 | 286 | 1.7 | 1.7 | 0.02 | 0.01 | 0.01 | 99 | 1039.6 |
| 20260509101038 | 44 | 276 | 0.9 | 2.6 | 0.02 | 0.01 | 0.01 | 99 | 1039.6 |
| 20260509100535 | 44 | 252 | 1.7 | 3.5 | 0.00 | 0.00 | 0.00 | 99 | 1039.6 |
| 20260509100032 | 44 | 255 | 1.7 | 2.6 | 0.00 | 0.00 | 0.00 | 99 | 1039.4 |
| 20260509095529 | 44 | 246 | 2.6 | 2.6 | 0.00 | 0.00 | 0.00 | 99 | 1039.5 |
| 20260509095026 | 44 | 275 | 1.7 | 2.6 | 0.00 | 0.00 | 0.00 | 99 | 1039.5 |
| 20260509094522 | 44 | 270 | 0.0 | 2.6 | 0.00 | 0.00 | 0.00 | 99 | 1039.4 |
| 20260509094020 | 44 | 270 | 1.7 | 1.7 | 0.00 | 0.00 | 0.00 | 99 | 1039.4 |
| 20260509093518 | 44 | 229 | 0.9 | 5.2 | 0.00 | 0.00 | 0.00 | 99 | 1039.3 |
| 20260509093015 | 43 | 285 | 1.7 | 2.6 | 0.00 | 0.00 | 0.00 | 99 | 1039.3 |
| 20260509092513 | 43 | 280 | 1.7 | 1.7 | 0.00 | 0.00 | 0.00 | 99 | 1039.3 |
| 20260509092012 | 43 | 286 | 1.7 | 1.7 | 0.00 | 0.00 | 0.00 | 99 | 1039.5 |
| 20260509091508 | 43 | 247 | 1.7 | 3.5 | 0.00 | 0.00 | 0.00 | 99 | 1039.6 |
| 20260509091005 | 43 | 191 | 0.9 | 2.6 | 0.00 | 0.00 | 0.00 | 99 | 1039.4 |
| 20260509090502 | 43 | 246 | 0.9 | 3.5 | 0.00 | 0.00 | 0.00 | 99 | 1039.6 |
| 20260509090000 | 43 | 210 | 1.7 | 4.3 | 0.00 | 0.00 | 0.00 | 99 | 1039.6 |
| 20260509085457 | 42 | 261 | 1.7 | 2.6 | 0.00 | 0.00 | 0.00 | 99 | 1039.4 |
| 20260509084953 | 42 | 260 | 1.7 | 2.6 | 0.00 | 0.00 | 0.00 | 99 | 1039.5 |
| 20260509084450 | 42 | 264 | 1.7 | 1.7 | 0.00 | 0.00 | 0.00 | 99 | 1039.8 |
| 20260509083947 | 42 | 270 | 1.7 | 1.7 | 0.00 | 0.00 | 0.00 | 99 | 1039.8 |
| 20260509083444 | 42 | 270 | 1.7 | 1.7 | 0.00 | 0.00 | 0.00 | 99 | 1039.9 |
| 20260509082941 | 42 | 275 | 1.7 | 2.6 | 0.00 | 0.00 | 0.00 | 99 | 1040.0 |
| 20260509082438 | 42 | 285 | 1.7 | 1.7 | 0.00 | 0.00 | 0.00 | 99 | 1039.8 |
| 20260509081935 | 42 | 270 | 1.7 | 1.7 | 0.00 | 0.00 | 0.00 | 99 | 1039.6 |
| 20260509081432 | 42 | 264 | 0.9 | 2.6 | 0.00 | 0.00 | 0.00 | 99 | 1039.8 |
| 20260509080929 | 42 | 270 | 0.9 | 3.5 | 0.00 | 0.00 | 0.00 | 99 | 1039.3 |
| 20260509080427 | 42 | 270 | 1.7 | 1.7 | 0.00 | 0.00 | 0.00 | 99 | 1039.9 |
| 20260509075925 | 42 | 251 | 1.7 | 2.6 | 0.00 | 0.00 | 0.00 | 99 | 1040.0 |
| 20260509075422 | 42 | 275 | 1.7 | 2.6 | 0.00 | 0.00 | 0.00 | 99 | 1040.1 |
| 20260509074920 | 42 | 253 | 1.7 | 1.7 | 0.00 | 0.00 | 0.00 | 99 | 1040.1 |
| 20260509074417 | 41 | 270 | 0.9 | 1.7 | 0.00 | 0.00 | 0.00 | 99 | 1040.1 |
| 20260509073913 | 41 | 270 | 1.7 | 1.7 | 0.00 | 0.00 | 0.00 | 99 | 1040.2 |
| 20260509073410 | 41 | 270 | 0.9 | 1.7 | 0.00 | 0.00 | 0.00 | 99 | 1040.3 |
| 20260509072906 | 41 | 261 | 1.7 | 2.6 | 0.00 | 0.00 | 0.00 | 99 | 1040.2 |
| 20260509072403 | 41 | 285 | 0.0 | 1.7 | 0.00 | 0.00 | 0.00 | 99 | 1040.5 |
| 20260509071859 | 41 | 276 | 0.9 | 1.7 | 0.00 | 0.00 | 0.00 | 99 | 1040.4 |
| 20260509071357 | 41 | 264 | 1.7 | 1.7 | 0.02 | 0.00 | 0.00 | 99 | 1040.2 |
| 20260509070854 | 41 | 263 | 0.9 | 2.6 | 0.02 | 0.00 | 0.00 | 99 | 1040.3 |
| 20260509070351 | 41 | 270 | 0.9 | 1.7 | 0.00 | 0.00 | 0.00 | 99 | 1040.4 |
| 20260509065846 | 41 | 270 | 0.9 | 1.7 | 0.00 | 0.00 | 0.00 | 99 | 1040.4 |
| 20260509065343 | 41 | 253 | 1.7 | 2.6 | 0.00 | 0.00 | 0.00 | 99 | 1040.4 |
| 20260509064839 | 41 | 254 | 0.0 | 2.6 | 0.00 | 0.00 | 0.00 | 99 | 1040.3 |
| 20260509064337 | 41 | 251 | 1.7 | 1.7 | 0.00 | 0.00 | 0.00 | 99 | 1040.4 |
| 20260509063834 | 40 | 251 | 0.9 | 1.7 | 0.00 | 0.00 | 0.00 | 99 | 1040.6 |
| 20260509063330 | 40 | 265 | 1.7 | 1.7 | 0.00 | 0.00 | 0.00 | 99 | 1040.6 |
| 20260509062828 | 40 | 257 | 0.9 | 2.6 | 0.00 | 0.00 | 0.00 | 99 | 1040.6 |
| 20260509062324 | 39 | 249 | 0.9 | 2.6 | 0.00 | 0.00 | 0.00 | 99 | 1040.7 |
| 20260509061822 | 39 | 270 | 1.7 | 2.6 | 0.00 | 0.00 | 0.00 | 99 | 1040.7 |
| 20260509061320 | 39 | 270 | 0.9 | 1.7 | 0.00 | 0.00 | 0.00 | 99 | 1040.8 |
| 20260509060816 | 39 | 270 | 0.9 | 1.7 | 0.00 | 0.00 | 0.00 | 99 | 1040.7 |
| 20260509060313 | 39 | 264 | 0.9 | 1.7 | 0.00 | 0.00 | 0.00 | 99 | 1041.0 |
| 20260509055808 | 39 | 283 | 2.6 | 2.6 | 0.00 | 0.00 | 0.00 | 99 | 1041.1 |
| 20260509055306 | 39 | 278 | 0.9 | 1.7 | 0.00 | 0.00 | 0.00 | 99 | 1040.9 |
| 20260509054801 | 39 | 270 | 0.9 | 1.7 | 0.00 | 0.00 | 0.00 | 99 | 1041.2 |
| 20260509054258 | 38 | 281 | 1.7 | 1.7 | 0.00 | 0.00 | 0.00 | 99 | 1041.2 |
| 20260509053757 | 38 | 263 | 0.9 | 1.7 | 0.00 | 0.00 | 0.00 | 99 | 1041.2 |
| 20260509053253 | 38 | 270 | 1.7 | 1.7 | 0.00 | 0.00 | 0.00 | 99 | 1041.2 |
| 20260509052751 | 38 | 276 | 1.7 | 1.7 | 0.00 | 0.00 | 0.00 | 99 | 1041.1 |
| 20260509052249 | 38 | 261 | 1.7 | 2.6 | 0.00 | 0.00 | 0.00 | 99 | 1041.2 |
| 20260509051746 | 38 | 270 | 1.7 | 1.7 | 0.00 | 0.00 | 0.00 | 99 | 1041.1 |
| 20260509051244 | 38 | 270 | 1.7 | 1.7 | 0.00 | 0.00 | 0.00 | 99 | 1041.3 |
| 20260509050740 | 37 | 270 | 0.0 | 1.7 | 0.00 | 0.00 | 0.00 | 99 | 1041.2 |
| 20260509050237 | 37 | 264 | 0.9 | 1.7 | 0.00 | 0.00 | 0.00 | 99 | 1041.2 |
| 20260509045735 | 37 | 254 | 1.7 | 1.7 | 0.00 | 0.00 | 0.00 | 99 | 1041.2 |
| 20260509045231 | 37 | 255 | 0.9 | 1.7 | 0.00 | 0.00 | 0.00 | 99 | 1041.2 |
| 20260509044729 | 36 | 257 | 1.7 | 2.6 | 0.00 | 0.00 | 0.00 | 99 | 1041.3 |
| 20260509044226 | 36 | 259 | 1.7 | 1.7 | 0.00 | 0.00 | 0.00 | 99 | 1041.5 |
| 20260509043722 | 36 | 277 | 0.0 | 1.7 | 0.00 | 0.00 | 0.00 | 99 | 1041.1 |
| 20260509043218 | 36 | 287 | 0.9 | 1.7 | 0.00 | 0.00 | 0.00 | 99 | 1041.2 |
| 20260509042715 | 35 | 267 | 2.6 | 2.6 | 0.00 | 0.00 | 0.00 | 99 | 1041.3 |
| 20260509042211 | 35 | 287 | 0.9 | 1.7 | 0.00 | 0.00 | 0.00 | 99 | 1041.1 |
| 20260509041708 | 36 | 233 | 1.7 | 1.7 | 0.00 | 0.00 | 0.00 | 99 | 1041.2 |
| 20260509041205 | 35 | 243 | 1.7 | 1.7 | 0.00 | 0.00 | 0.00 | 99 | 1041.0 |
| 20260509040703 | 36 | 270 | 0.9 | 1.7 | 0.00 | 0.00 | 0.00 | 99 | 1041.2 |
| 20260509040200 | 36 | 270 | 1.7 | 1.7 | 0.00 | 0.00 | 0.00 | 99 | 1041.4 |
| 20260509035656 | 36 | 261 | 1.7 | 1.7 | 0.00 | 0.06 | 0.06 | 99 | 1041.3 |
| 20260509035153 | 36 | 257 | 1.7 | 2.6 | 0.00 | 0.06 | 0.06 | 99 | 1041.5 |
| 20260509034651 | 36 | 270 | 1.7 | 1.7 | 0.00 | 0.06 | 0.06 | 99 | 1041.6 |
| 20260509034148 | 37 | 262 | 0.9 | 1.7 | 0.00 | 0.06 | 0.06 | 99 | 1041.4 |
| 20260509033645 | 37 | 243 | 1.7 | 1.7 | 0.00 | 0.06 | 0.06 | 99 | 1041.5 |
| 20260509033142 | 36 | 248 | 1.7 | 1.7 | 0.00 | 0.06 | 0.06 | 99 | 1041.5 |
| 20260509032639 | 37 | 270 | 1.7 | 1.7 | 0.00 | 0.06 | 0.06 | 99 | 1041.6 |
| 20260509032136 | 37 | 258 | 0.9 | 1.7 | 0.00 | 0.06 | 0.06 | 99 | 1041.5 |
| 20260509031634 | 37 | 246 | 0.0 | 2.6 | 0.00 | 0.06 | 0.06 | 99 | 1041.7 |
| 20260509031131 | 37 | 270 | 0.9 | 1.7 | 0.00 | 0.06 | 0.06 | 98 | 1041.4 |
| 20260509030629 | 37 | 265 | 1.7 | 1.7 | 0.00 | 0.06 | 0.06 | 98 | 1041.5 |
| 20260509030126 | 38 | 246 | 0.9 | 1.7 | 0.00 | 0.06 | 0.06 | 98 | 1041.6 |
| 20260509025622 | 38 | 260 | 1.7 | 2.6 | 0.00 | 0.06 | 0.06 | 97 | 1041.5 |
| 20260509025118 | 38 | 246 | 0.9 | 1.7 | 0.00 | 0.06 | 0.06 | 97 | 1041.4 |
| 20260509024613 | 39 | 275 | 1.7 | 3.5 | 0.00 | 0.06 | 0.06 | 97 | 1041.6 |
| 20260509024109 | 39 | 270 | 1.7 | 1.7 | 0.00 | 0.06 | 0.06 | 97 | 1041.6 |
| 20260509023608 | 39 | 249 | 0.9 | 2.6 | 0.00 | 0.06 | 0.06 | 97 | 1041.8 |
| 20260509023104 | 39 | 265 | 1.7 | 2.6 | 0.00 | 0.06 | 0.06 | 97 | 1041.7 |
| 20260509022600 | 39 | 261 | 2.6 | 2.6 | 0.00 | 0.06 | 0.06 | 97 | 1041.6 |
| 20260509022059 | 40 | 295 | 1.7 | 1.7 | 0.00 | 0.06 | 0.06 | 97 | 1041.5 |
| 20260509021555 | 40 | 264 | 1.7 | 1.7 | 0.00 | 0.06 | 0.06 | 96 | 1041.6 |
| 20260509021052 | 40 | 253 | 1.7 | 2.6 | 0.00 | 0.06 | 0.06 | 96 | 1041.8 |
| 20260509020551 | 41 | 262 | 0.0 | 1.7 | 0.00 | 0.06 | 0.06 | 95 | 1041.6 |
| 20260509020047 | 41 | 254 | 0.0 | 1.7 | 0.00 | 0.06 | 0.06 | 94 | 1041.7 |
| 20260509015547 | 42 | 282 | 0.9 | 1.7 | 0.00 | 0.06 | 0.06 | 93 | 1041.5 |
| 20260509015043 | 42 | 281 | 1.7 | 1.7 | 0.00 | 0.06 | 0.06 | 94 | 1041.6 |
| 20260509014540 | 43 | 258 | 0.9 | 2.6 | 0.00 | 0.06 | 0.06 | 94 | 1041.6 |
| 20260509014036 | 43 | 264 | 1.7 | 1.7 | 0.00 | 0.06 | 0.06 | 94 | 1041.6 |
| 20260509013533 | 43 | 270 | 0.9 | 1.7 | 0.00 | 0.06 | 0.06 | 94 | 1041.5 |
| 20260509013029 | 43 | 270 | 1.7 | 1.7 | 0.00 | 0.06 | 0.06 | 94 | 1041.7 |
| 20260509012526 | 43 | 270 | 1.7 | 1.7 | 0.00 | 0.06 | 0.06 | 94 | 1041.5 |
| 20260509012022 | 43 | 275 | 1.7 | 1.7 | 0.00 | 0.06 | 0.06 | 94 | 1041.2 |
| 20260509011520 | 42 | 261 | 1.7 | 1.7 | 0.00 | 0.06 | 0.06 | 94 | 1041.2 |
| 20260509011017 | 42 | 270 | 0.0 | 1.7 | 0.00 | 0.06 | 0.06 | 93 | 1041.0 |
| 20260509010515 | 42 | 266 | 1.7 | 2.6 | 0.00 | 0.06 | 0.06 | 93 | 1041.2 |
| 20260509010011 | 42 | 261 | 1.7 | 2.6 | 0.00 | 0.06 | 0.06 | 93 | 1041.1 |
| 20260509005510 | 42 | 260 | 1.7 | 1.7 | 0.00 | 0.06 | 0.06 | 93 | 1040.9 |
| 20260509005009 | 42 | 254 | 1.7 | 1.7 | 0.00 | 0.06 | 0.06 | 93 | 1040.9 |
| 20260509004506 | 42 | 270 | 1.7 | 1.7 | 0.00 | 0.06 | 0.06 | 92 | 1040.8 |
| 20260509004004 | 42 | 250 | 1.7 | 1.7 | 0.00 | 0.06 | 0.06 | 91 | 1040.8 |
| 20260509003502 | 43 | 270 | 1.7 | 1.7 | 0.00 | 0.06 | 0.06 | 91 | 1040.9 |
| 20260509002958 | 43 | 265 | 1.7 | 1.7 | 0.00 | 0.06 | 0.06 | 90 | 1040.8 |
| 20260509002456 | 43 | 251 | 1.7 | 1.7 | 0.00 | 0.06 | 0.06 | 91 | 1040.5 |
| 20260509001953 | 44 | 270 | 0.0 | 1.7 | 0.00 | 0.06 | 0.06 | 90 | 1040.6 |
| 20260509001450 | 44 | 254 | 1.7 | 1.7 | 0.00 | 0.06 | 0.06 | 89 | 1040.6 |
| 20260509000946 | 45 | 243 | 1.7 | 1.7 | 0.00 | 0.06 | 0.06 | 88 | 1040.5 |
| 20260509000447 | 45 | 265 | 1.7 | 1.7 | 0.00 | 0.06 | 0.06 | 87 | 1040.5 |
| 20260508235940 | 46 | 258 | 0.9 | 2.6 | 0.00 | 0.06 | 0.06 | 84 | 1040.5 |
| 20260508235439 | 46 | 270 | 1.7 | 1.7 | 0.00 | 0.06 | 0.06 | 84 | 1040.5 |
| 20260508234935 | 47 | 249 | 0.9 | 1.7 | 0.00 | 0.06 | 0.06 | 83 | 1040.4 |
| 20260508234432 | 47 | 270 | 1.7 | 1.7 | 0.00 | 0.06 | 0.06 | 81 | 1040.2 |
| 20260508233929 | 48 | 251 | 1.7 | 1.7 | 0.00 | 0.06 | 0.06 | 78 | 1040.3 |
| 20260508233429 | 48 | 264 | 0.9 | 1.7 | 0.00 | 0.06 | 0.06 | 78 | 1040.0 |
| 20260508232925 | 49 | 275 | 1.7 | 2.6 | 0.00 | 0.06 | 0.06 | 76 | 1040.2 |
| 20260508232422 | 49 | 270 | 1.7 | 2.6 | 0.00 | 0.06 | 0.06 | 75 | 1040.0 |
| 20260508231920 | 50 | 260 | 1.7 | 2.6 | 0.00 | 0.06 | 0.06 | 73 | 1039.9 |
| 20260508231416 | 51 | 254 | 1.7 | 2.6 | 0.00 | 0.06 | 0.06 | 72 | 1039.9 |
| 20260508230914 | 51 | 270 | 1.7 | 2.6 | 0.00 | 0.06 | 0.06 | 71 | 1040.2 |
| 20260508230410 | 53 | 277 | 2.6 | 2.6 | 0.00 | 0.06 | 0.06 | 67 | 1039.9 |
| 20260508225907 | 55 | 270 | 1.7 | 2.6 | 0.00 | 0.06 | 0.06 | 66 | 1040.1 |
| 20260508225403 | 55 | 261 | 1.7 | 3.5 | 0.00 | 0.06 | 0.06 | 58 | 1040.1 |
| 20260508224901 | 56 | 275 | 1.7 | 2.6 | 0.00 | 0.06 | 0.06 | 63 | 1040.2 |
| 20260508224358 | 57 | 263 | 2.6 | 3.5 | 0.00 | 0.06 | 0.06 | 60 | 1040.3 |
| 20260508223856 | 56 | 296 | 2.6 | 3.5 | 0.00 | 0.06 | 0.06 | 63 | 1040.2 |
| 20260508223354 | 55 | 276 | 2.6 | 3.5 | 0.00 | 0.06 | 0.06 | 66 | 1040.3 |
| 20260508222851 | 55 | 264 | 2.6 | 4.3 | 0.00 | 0.06 | 0.06 | 60 | 1040.3 |
| 20260508222348 | 55 | 266 | 1.7 | 3.5 | 0.00 | 0.06 | 0.06 | 62 | 1040.2 |
| 20260508221844 | 55 | 258 | 3.5 | 3.5 | 0.00 | 0.06 | 0.06 | 61 | 1040.1 |
| 20260508221340 | 56 | 270 | 1.7 | 2.6 | 0.00 | 0.06 | 0.06 | 57 | 1040.2 |
| 20260508220836 | 57 | 255 | 2.6 | 2.6 | 0.00 | 0.06 | 0.06 | 55 | 1040.0 |
| 20260508220333 | 58 | 312 | 1.7 | 2.6 | 0.00 | 0.06 | 0.06 | 58 | 1040.1 |
| 20260508215829 | 59 | 242 | 7.8 | 7.8 | 0.00 | 0.06 | 0.06 | 53 | 1040.2 |
| 20260508215326 | 60 | 255 | 2.6 | 2.6 | 0.00 | 0.06 | 0.06 | 52 | 1040.2 |
| 20260508214823 | 59 | 278 | 1.7 | 2.6 | 0.00 | 0.06 | 0.06 | 52 | 1040.3 |
| 20260508214320 | 56 | 296 | 2.6 | 3.5 | 0.00 | 0.06 | 0.06 | 60 | 1040.2 |
| 20260508213817 | 57 | 286 | 1.7 | 2.6 | 0.00 | 0.06 | 0.06 | 61 | 1040.3 |
| 20260508213314 | 57 | 257 | 0.0 | 1.7 | 0.00 | 0.06 | 0.06 | 53 | 1040.5 |
| 20260508212810 | 58 | 270 | 2.6 | 2.6 | 0.00 | 0.06 | 0.06 | 55 | 1040.2 |
| 20260508212306 | 58 | 292 | 1.7 | 3.5 | 0.00 | 0.06 | 0.06 | 57 | 1040.3 |
| 20260508211802 | 58 | 266 | 1.7 | 2.6 | 0.00 | 0.06 | 0.06 | 55 | 1040.3 |
| 20260508211258 | 59 | 262 | 0.0 | 2.6 | 0.00 | 0.06 | 0.06 | 53 | 1040.4 |
| 20260508210756 | 59 | 270 | 1.7 | 2.6 | 0.00 | 0.06 | 0.06 | 51 | 1040.2 |
| 20260508210252 | 57 | 275 | 1.7 | 2.6 | 0.00 | 0.06 | 0.06 | 55 | 1040.3 |
| 20260508205749 | 58 | 270 | 1.7 | 2.6 | 0.00 | 0.06 | 0.06 | 56 | 1040.2 |
| 20260508205245 | 57 | 315 | 1.7 | 2.6 | 0.00 | 0.06 | 0.06 | 57 | 1040.4 |
| 20260508204742 | 56 | 270 | 1.7 | 3.5 | 0.00 | 0.06 | 0.06 | 58 | 1040.6 |
| 20260508204238 | 56 | 290 | 1.7 | 6.1 | 0.00 | 0.06 | 0.06 | 56 | 1040.3 |
| 20260508203734 | 56 | 265 | 1.7 | 2.6 | 0.00 | 0.06 | 0.06 | 56 | 1040.5 |
| 20260508203231 | 56 | 255 | 2.6 | 5.2 | 0.00 | 0.06 | 0.06 | 52 | 1040.6 |
| 20260508202727 | 58 | 285 | 1.7 | 2.6 | 0.00 | 0.06 | 0.06 | 57 | 1040.5 |
| 20260508202224 | 58 | 297 | 1.7 | 3.5 | 0.00 | 0.06 | 0.06 | 52 | 1040.4 |
| 20260508201721 | 59 | 254 | 1.7 | 3.5 | 0.00 | 0.06 | 0.06 | 48 | 1040.7 |
| 20260508201217 | 60 | 304 | 2.6 | 4.3 | 0.00 | 0.06 | 0.06 | 52 | 1040.5 |
| 20260508200714 | 58 | 229 | 2.6 | 7.0 | 0.00 | 0.06 | 0.06 | 50 | 1040.6 |
| 20260508200211 | 57 | 303 | 1.7 | 4.3 | 0.00 | 0.06 | 0.06 | 51 | 1040.6 |
| 20260508195708 | 55 | 264 | 1.7 | 8.7 | 0.00 | 0.06 | 0.06 | 51 | 1040.9 |
| 20260508195204 | 57 | 285 | 1.7 | 4.3 | 0.00 | 0.06 | 0.06 | 54 | 1040.8 |
| 20260508194700 | 57 | 253 | 5.2 | 9.6 | 0.00 | 0.06 | 0.06 | 54 | 1040.8 |
| 20260508194157 | 60 | 285 | 0.9 | 4.3 | 0.00 | 0.06 | 0.06 | 50 | 1040.8 |
| 20260508193655 | 62 | 277 | 0.9 | 6.1 | 0.00 | 0.06 | 0.06 | 55 | 1041.0 |
| 20260508193151 | 61 | 270 | 0.9 | 2.6 | 0.00 | 0.06 | 0.06 | 50 | 1041.2 |
| 20260508192648 | 61 | 270 | 0.0 | 14.8 | 0.00 | 0.06 | 0.06 | 52 | 1041.2 |
| 20260508192145 | 62 | 265 | 1.7 | 6.1 | 0.00 | 0.06 | 0.06 | 53 | 1041.1 |
| 20260508191642 | 60 | 245 | 1.7 | 4.3 | 0.00 | 0.06 | 0.06 | 48 | 1041.1 |
| 20260508191138 | 60 | 313 | 2.6 | 6.1 | 0.00 | 0.06 | 0.06 | 51 | 1041.2 |
| 20260508190636 | 59 | 290 | 1.7 | 2.6 | 0.00 | 0.06 | 0.06 | 53 | 1041.1 |
| 20260508190132 | 57 | 253 | 1.7 | 4.3 | 0.00 | 0.06 | 0.06 | 55 | 1041.5 |
| 20260508185629 | 57 | 259 | 4.3 | 6.1 | 0.00 | 0.06 | 0.06 | 57 | 1041.5 |
| 20260508185127 | 60 | 289 | 2.6 | 2.6 | 0.00 | 0.06 | 0.06 | 51 | 1041.5 |
| 20260508184624 | 59 | 206 | 2.6 | 6.1 | 0.00 | 0.06 | 0.06 | 53 | 1041.4 |
| 20260508184121 | 58 | 292 | 1.7 | 7.0 | 0.00 | 0.06 | 0.06 | 56 | 1041.7 |
| 20260508183617 | 58 | 270 | 0.0 | 1.7 | 0.00 | 0.06 | 0.06 | 53 | 1041.8 |
| 20260508183113 | 57 | 186 | 0.9 | 4.3 | 0.00 | 0.06 | 0.06 | 57 | 1041.7 |
| 20260508182609 | 55 | 289 | 1.7 | 5.2 | 0.00 | 0.06 | 0.06 | 60 | 1041.9 |
| 20260508182106 | 57 | 287 | 2.6 | 4.3 | 0.00 | 0.06 | 0.06 | 65 | 1042.0 |
| 20260508181601 | 59 | 287 | 1.7 | 2.6 | 0.00 | 0.06 | 0.06 | 60 | 1042.1 |
| 20260508181059 | 56 | 279 | 1.7 | 1.7 | 0.00 | 0.06 | 0.06 | 69 | 1042.2 |
| 20260508180556 | 56 | 296 | 3.5 | 7.8 | 0.00 | 0.06 | 0.06 | 73 | 1042.0 |
| 20260508180052 | 53 | 245 | 1.7 | 2.6 | 0.00 | 0.06 | 0.06 | 70 | 1042.2 |
| 20260508175549 | 53 | 294 | 0.9 | 3.5 | 0.00 | 0.06 | 0.06 | 76 | 1042.5 |
| 20260508175046 | 50 | 294 | 4.3 | 4.3 | 0.00 | 0.06 | 0.06 | 74 | 1042.4 |
| 20260508174544 | 51 | 212 | 2.6 | 6.1 | 0.00 | 0.06 | 0.06 | 71 | 1042.4 |